TimeCDT,TemperatureF,Dew PointF,Humidity,Sea Level PressureIn,VisibilityMPH,Wind Direction,Wind SpeedMPH,Gust SpeedMPH,PrecipitationIn,Events,Conditions,WindDirDegrees,DateUTC
12:15 AM,62.6,61.0,94,29.85,7.0,Calm,Calm,-,0.06,Rain-Thunderstorm,Heavy Thunderstorms and Rain,0,2013-05-21 05:15:00
12:35 AM,61.9,61.0,97,29.83,7.0,SE,11.5,-,0.13,Rain-Thunderstorm,Thunderstorms and Rain,130,2013-05-21 05:35:00
12:55 AM,62.1,61.0,96,29.79,10.0,ESE,10.4,-,0.16,Rain-Thunderstorm,Thunderstorms and Rain,120,2013-05-21 05:55:00
1:15 AM,62.1,61.0,96,29.79,10.0,SE,12.7,20.7,N/A,Rain-Thunderstorm,Light Thunderstorms and Rain,130,2013-05-21 06:15:00
1:35 AM,62.1,61.0,96,29.77,10.0,SE,13.8,-,N/A,,Scattered Clouds,130,2013-05-21 06:35:00
1:55 AM,62.1,60.8,96,29.77,10.0,SE,8.1,-,N/A,,Scattered Clouds,140,2013-05-21 06:55:00
2:15 AM,62.2,60.4,94,29.77,10.0,SSE,9.2,-,N/A,,Clear,160,2013-05-21 07:15:00
2:35 AM,63.0,60.4,91,29.79,10.0,South,12.7,-,N/A,,Scattered Clouds,170,2013-05-21 07:35:00
2:55 AM,63.7,60.8,90,29.83,10.0,South,19.6,27.6,N/A,Rain,Light Rain,180,2013-05-21 07:55:00
3:15 AM,62.6,61.7,97,29.81,5.0,SSE,18.4,26.5,0.03,Rain,Light Rain,160,2013-05-21 08:15:00
3:35 AM,62.8,61.2,94,29.81,10.0,South,12.7,-,0.04,Rain,Light Rain,170,2013-05-21 08:35:00
3:55 AM,62.8,61.3,95,29.78,10.0,SSE,12.7,17.3,0.05,,Scattered Clouds,150,2013-05-21 08:55:00
4:15 AM,63.0,61.3,94,29.78,10.0,SSE,11.5,19.6,N/A,Thunderstorm,Clear,160,2013-05-21 09:15:00
4:35 AM,63.9,60.8,90,29.76,10.0,South,15.0,-,N/A,,Clear,170,2013-05-21 09:35:00
4:55 AM,63.7,61.2,91,29.76,10.0,South,12.7,-,N/A,,Scattered Clouds,170,2013-05-21 09:55:00
5:15 AM,63.9,61.0,90,29.76,10.0,South,12.7,-,N/A,,Clear,170,2013-05-21 10:15:00
5:35 AM,63.3,61.0,92,29.76,10.0,South,8.1,-,N/A,,Clear,170,2013-05-21 10:35:00
5:55 AM,62.8,61.0,94,29.75,10.0,SSE,8.1,-,N/A,,Clear,160,2013-05-21 10:55:00
6:15 AM,62.8,60.8,93,29.76,10.0,SSE,9.2,-,N/A,,Clear,160,2013-05-21 11:15:00
6:35 AM,63.5,61.3,93,29.78,10.0,South,11.5,-,N/A,,Clear,180,2013-05-21 11:35:00
6:55 AM,63.5,61.0,91,29.79,10.0,South,12.7,-,N/A,,Clear,170,2013-05-21 11:55:00
7:15 AM,63.7,61.0,91,29.80,10.0,South,13.8,19.6,N/A,,Clear,170,2013-05-21 12:15:00
7:35 AM,64.4,61.9,92,29.80,10.0,South,15.0,18.4,N/A,,Mostly Cloudy,170,2013-05-21 12:35:00
7:55 AM,64.9,62.1,90,29.81,10.0,South,17.3,20.7,N/A,,Mostly Cloudy,180,2013-05-21 12:55:00
8:15 AM,65.7,62.4,89,29.81,10.0,SSW,15.0,-,N/A,,Mostly Cloudy,200,2013-05-21 13:15:00
8:35 AM,67.1,63.1,87,29.81,10.0,SSW,12.7,-,N/A,,Scattered Clouds,210,2013-05-21 13:35:00
8:55 AM,68.0,62.8,83,29.81,10.0,SSW,17.3,24.2,N/A,,Clear,200,2013-05-21 13:55:00
9:15 AM,68.4,63.5,84,29.81,10.0,SSW,13.8,18.4,N/A,,Scattered Clouds,200,2013-05-21 14:15:00
9:35 AM,69.8,64.2,82,29.80,10.0,SSW,16.1,-,N/A,,Scattered Clouds,210,2013-05-21 14:35:00
9:55 AM,70.7,64.4,80,29.80,10.0,South,17.3,-,N/A,,Scattered Clouds,190,2013-05-21 14:55:00
10:15 AM,70.0,64.2,82,29.80,10.0,South,13.8,-,N/A,,Clear,180,2013-05-21 15:15:00
10:35 AM,70.7,65.1,82,29.81,10.0,South,16.1,-,N/A,,Clear,180,2013-05-21 15:35:00
10:55 AM,71.4,65.8,82,29.80,10.0,South,15.0,19.6,N/A,,Clear,170,2013-05-21 15:55:00
11:15 AM,72.1,65.7,80,29.78,10.0,South,12.7,-,N/A,,Clear,170,2013-05-21 16:15:00
11:35 AM,72.1,65.1,78,29.77,10.0,South,12.7,-,N/A,,Clear,180,2013-05-21 16:35:00
11:55 AM,73.0,65.8,78,29.78,10.0,South,15.0,-,N/A,,Clear,190,2013-05-21 16:55:00
12:15 PM,73.4,66.2,78,29.79,10.0,South,12.7,19.6,N/A,,Clear,180,2013-05-21 17:15:00
12:35 PM,74.5,67.5,79,29.79,10.0,SSW,17.3,20.7,N/A,,Scattered Clouds,200,2013-05-21 17:35:00
12:55 PM,74.5,66.9,77,29.79,10.0,South,15.0,20.7,N/A,,Scattered Clouds,180,2013-05-21 17:55:00
1:15 PM,74.8,67.6,78,29.79,10.0,South,13.8,-,N/A,,Scattered Clouds,190,2013-05-21 18:15:00
1:35 PM,76.1,67.1,74,-9999,10.0,SSW,12.7,-,N/A,,Scattered Clouds,210,2013-05-21 18:35:00
1:55 PM,76.8,68.4,75,29.78,10.0,South,15.0,-,N/A,,Scattered Clouds,190,2013-05-21 18:55:00
2:15 PM,77.4,68.2,73,29.77,10.0,South,16.1,21.9,N/A,,Clear,180,2013-05-21 19:15:00
2:35 PM,77.5,67.1,70,29.78,10.0,SSW,19.6,23.0,N/A,,Clear,200,2013-05-21 19:35:00
2:55 PM,78.1,66.4,67,29.77,10.0,SSW,17.3,-,N/A,,Clear,200,2013-05-21 19:55:00
3:15 PM,78.3,67.1,68,29.77,10.0,South,17.3,-,N/A,,Scattered Clouds,190,2013-05-21 20:15:00
3:35 PM,77.0,64.8,66,29.76,10.0,SSW,17.3,-,N/A,,Scattered Clouds,200,2013-05-21 20:35:00
3:55 PM,78.3,66.2,66,29.76,10.0,SSW,19.6,24.2,N/A,,Clear,210,2013-05-21 20:55:00
4:15 PM,77.5,65.3,66,29.74,10.0,South,17.3,-,N/A,,Clear,190,2013-05-21 21:15:00
4:35 PM,77.9,64.0,62,29.73,10.0,SSW,13.8,-,N/A,,Clear,200,2013-05-21 21:35:00
4:55 PM,77.4,64.8,65,29.72,10.0,South,13.8,-,N/A,,Clear,190,2013-05-21 21:55:00
5:15 PM,76.6,64.4,66,29.72,10.0,South,17.3,-,N/A,,Clear,190,2013-05-21 22:15:00
5:35 PM,75.9,63.7,66,29.72,10.0,South,16.1,-,N/A,,Clear,190,2013-05-21 22:35:00
5:55 PM,75.4,63.3,66,29.73,10.0,South,17.3,-,N/A,,Clear,190,2013-05-21 22:55:00
6:15 PM,74.1,61.9,65,29.73,10.0,SSW,16.1,-,N/A,,Scattered Clouds,200,2013-05-21 23:15:00
6:35 PM,73.0,65.3,77,29.73,10.0,South,13.8,-,N/A,,Mostly Cloudy,180,2013-05-21 23:35:00
6:55 PM,72.7,64.8,76,29.73,10.0,South,13.8,19.6,N/A,,Scattered Clouds,190,2013-05-21 23:55:00
7:15 PM,72.1,64.8,78,29.73,10.0,South,10.4,-,N/A,,Clear,180,2013-05-22 00:15:00
7:35 PM,71.6,63.9,76,29.73,10.0,South,12.7,-,N/A,,Scattered Clouds,190,2013-05-22 00:35:00
7:55 PM,71.1,63.9,78,29.75,10.0,South,12.7,-,N/A,,Mostly Cloudy,190,2013-05-22 00:55:00
8:15 PM,70.7,63.5,78,29.75,10.0,South,12.7,-,N/A,,Mostly Cloudy,180,2013-05-22 01:15:00
8:35 PM,69.8,63.5,80,29.75,10.0,South,11.5,-,N/A,,Mostly Cloudy,180,2013-05-22 01:35:00
8:55 PM,68.9,62.8,81,29.75,10.0,South,12.7,-,N/A,,Overcast,180,2013-05-22 01:55:00
9:15 PM,68.0,63.0,84,29.73,10.0,South,11.5,-,N/A,,Mostly Cloudy,170,2013-05-22 02:15:00
9:35 PM,68.0,63.5,85,29.73,10.0,South,10.4,-,N/A,,Mostly Cloudy,170,2013-05-22 02:35:00
9:55 PM,67.5,63.9,88,29.73,10.0,South,11.5,-,N/A,,Overcast,180,2013-05-22 02:55:00
10:15 PM,67.3,64.4,90,29.73,10.0,South,8.1,-,N/A,,Overcast,180,2013-05-22 03:15:00
10:35 PM,67.1,64.4,91,29.73,10.0,South,10.4,-,N/A,,Overcast,180,2013-05-22 03:35:00
10:55 PM,67.1,63.9,89,29.72,10.0,South,9.2,-,N/A,,Overcast,170,2013-05-22 03:55:00
11:15 PM,66.7,63.7,90,29.73,10.0,South,10.4,-,N/A,,Overcast,170,2013-05-22 04:15:00
11:35 PM,66.4,63.5,90,29.73,10.0,South,10.4,-,N/A,,Scattered Clouds,170,2013-05-22 04:35:00
11:55 PM,66.2,63.3,90,29.72,10.0,SSE,9.2,-,N/A,,Mostly Cloudy,150,2013-05-22 04:55:00